Location: *
(50.2903°S, 172.5375°W)
Time: 04:01:32
(UTC+00:00)

Cosmos 1674 - Pass Details

Date: 17 November 2019
Orbit: 496 x 518 km, 82.5° (Epoch: 05 December)

Event Time Altitude Azimuth Distance (km) Brightness Sun altitude
Rises 12:32:31 0° 198° (SSW) 2,635 7.2 -18.6°
Reaches altitude 10° 12:34:46 10° 206° (SSW) 1,741 6.0 -18.5°
Maximum altitude 12:38:16 35° 272° (W) 835 3.5 -18.3°
Enters shadow 12:38:41 34° 288° (WNW) 853 3.4 -18.3°
